Location: Unspecified
(0.0000°N, 0.0000°E)
Time: 11:30:09
(UTC+00:00)

S-56A Canister/Altair - Pass Details

Date: 28 May 2024
Orbit: 637 x 2489 km, 38.9° (Epoch: 17 June)

Event Time Altitude Azimuth Distance (km) Brightness Sun altitude
Rises 12:17:13 0° 321° (NW) 3,687 11.3 67.9°
Reaches altitude 10° 12:20:17 10° 327° (NNW) 2,504 10.7 67.7°
Maximum altitude 12:25:34 43° 38° (NE) 995 9.1 67.3°
Drops below altitude 10° 12:29:53 10° 111° (ESE) 2,038 9.7 67.0°
Sets 12:32:09 0° 118° (ESE) 2,923 10.3 66.8°
